TimeEDT,TemperatureF,Dew PointF,Humidity,Sea Level PressureIn,VisibilityMPH,Wind Direction,Wind SpeedMPH,Gust SpeedMPH,PrecipitationIn,Events,Conditions,WindDirDegrees,DateUTC
12:53 AM,72.0,64.9,78,29.93,10.0,NW,5.8,-,N/A,,Overcast,310,2013-09-08 04:53:00
1:53 AM,73.0,64.0,73,29.93,10.0,NW,5.8,-,N/A,,Overcast,310,2013-09-08 05:53:00
2:53 AM,71.1,64.9,81,29.93,10.0,NNW,9.2,-,N/A,,Mostly Cloudy,340,2013-09-08 06:53:00
3:53 AM,69.1,64.9,87,29.93,8.0,North,8.1,-,N/A,,Clear,360,2013-09-08 07:53:00
4:00 AM,69.8,64.4,83,29.94,8.0,North,5.8,-,N/A,,Scattered Clouds,10,2013-09-08 08:00:00
4:10 AM,69.8,66.2,88,29.95,8.0,North,6.9,-,N/A,,Mostly Cloudy,10,2013-09-08 08:10:00
4:42 AM,69.8,66.2,88,29.96,8.0,NNE,8.1,-,N/A,,Overcast,20,2013-09-08 08:42:00
4:53 AM,70.0,66.0,87,29.95,9.0,NNE,9.2,-,N/A,,Overcast,20,2013-09-08 08:53:00
5:02 AM,69.8,66.2,88,29.96,9.0,NNE,8.1,-,N/A,,Overcast,20,2013-09-08 09:02:00
5:53 AM,70.0,64.9,84,29.96,10.0,North,10.4,-,N/A,,Overcast,10,2013-09-08 09:53:00
6:53 AM,69.1,64.0,84,29.99,10.0,NNE,10.4,18.4,N/A,,Overcast,30,2013-09-08 10:53:00
7:22 AM,68.0,62.6,83,30.02,10.0,NE,10.4,-,N/A,,Overcast,40,2013-09-08 11:22:00
7:53 AM,68.0,62.1,81,30.02,10.0,NNE,10.4,-,N/A,,Overcast,30,2013-09-08 11:53:00
8:53 AM,68.0,61.0,78,30.03,10.0,NE,6.9,-,N/A,,Overcast,50,2013-09-08 12:53:00
9:53 AM,69.1,62.1,78,30.05,10.0,NE,5.8,-,N/A,,Overcast,50,2013-09-08 13:53:00
10:53 AM,66.9,60.1,79,30.07,10.0,NE,10.4,-,N/A,,Overcast,50,2013-09-08 14:53:00
11:48 AM,69.8,60.8,73,30.09,10.0,ENE,9.2,17.3,N/A,,Overcast,60,2013-09-08 15:48:00
11:53 AM,70.0,61.0,73,30.08,10.0,NNE,10.4,18.4,N/A,,Overcast,30,2013-09-08 15:53:00
12:18 PM,69.8,60.8,73,30.09,10.0,NNE,9.2,-,N/A,,Mostly Cloudy,30,2013-09-08 16:18:00
12:26 PM,71.6,60.8,69,30.09,10.0,NE,12.7,16.1,N/A,,Mostly Cloudy,40,2013-09-08 16:26:00
12:53 PM,72.0,59.0,64,30.08,10.0,East,8.1,-,N/A,,Scattered Clouds,90,2013-09-08 16:53:00
1:03 PM,73.4,59.0,61,30.09,10.0,East,9.2,-,N/A,,Mostly Cloudy,80,2013-09-08 17:03:00
1:15 PM,73.4,57.2,57,30.09,10.0,East,10.4,-,N/A,,Scattered Clouds,90,2013-09-08 17:15:00
1:53 PM,73.9,55.9,53,30.08,10.0,NE,12.7,17.3,N/A,,Scattered Clouds,50,2013-09-08 17:53:00
2:53 PM,75.0,55.9,51,30.07,10.0,East,8.1,-,N/A,,Clear,100,2013-09-08 18:53:00
3:53 PM,73.0,54.0,51,30.05,10.0,ENE,8.1,-,N/A,,Clear,60,2013-09-08 19:53:00
4:53 PM,73.0,54.0,51,30.05,10.0,East,5.8,-,N/A,,Clear,100,2013-09-08 20:53:00
5:53 PM,73.0,53.1,49,30.04,10.0,ENE,6.9,-,N/A,,Clear,60,2013-09-08 21:53:00
6:53 PM,70.0,51.1,51,30.05,10.0,East,5.8,-,N/A,,Clear,100,2013-09-08 22:53:00
7:53 PM,64.9,52.0,63,30.06,10.0,SE,4.6,-,N/A,,Clear,130,2013-09-08 23:53:00
8:53 PM,62.1,54.0,75,30.06,10.0,Calm,Calm,-,N/A,,Clear,0,2013-09-09 00:53:00
9:53 PM,62.1,53.1,72,30.06,10.0,East,3.5,-,N/A,,Clear,100,2013-09-09 01:53:00
10:53 PM,60.1,48.9,67,30.06,10.0,East,5.8,-,N/A,,Clear,80,2013-09-09 02:53:00
11:53 PM,57.9,48.0,70,30.06,10.0,ENE,4.6,-,N/A,,Clear,70,2013-09-09 03:53:00